STARLINK-31870, 59787

Orbit data source: Space-Track

STARLINK-31870, 59787 is a payload satellite owned by SpaceX/Seattle (US) in LEO that was launched on Sat, 18 May 2024 UTC via an FALCON 9 launch vehicle from the Air Force Eastern Test Range (AFETR). Payload-class satellites include a variety of spacecraft equipped with specific instruments for various scientific and technological missions. These include communications satellites like Starlink; space stations such as the ISS; scientific satellites like the Hubble; Earth observation satellites from companies like Planet Labs, Umbra, and HawkEye 360; GPS; miniature CubeSats for education and research; and military/defense satellites.

Loading next visibility...
Identifier
59787, 2024-093F
Orbit
LEO
Country
Flag of USUS
Related business
Manufacturer
SpaceX/Seattle
Mission
Operational Commercial Communications
Bus & Motor
STARLINK V2M, Unknown motor
Mass
730 kg wet, ~700 kg dry
Launch date (UTC)
2024-05-18 (2 years ago)
Launch vehicle
FALCON 9
Launch site
Air Force Eastern Test Range (AFETR)
Object type
Payload
Rocket body
Debris
Shape & HBR
Box + 2 Pan, 17.7 m
Radar Cross Section
33.884 m², Large (>1 m²)

Expand to show TLE details & history
Last TLE update: 23 hours ago

TLE from 23 hours ago
0 STARLINK-31870
1 59787U 24093F   25353.28892848  .00000462  00000-0  26294-4 0  9990
2 59787  43.0004 302.5754 0001052 273.7839  86.2892 15.27588567 90404
Epoch: 2025-12-19T06:56Z
TLE epoch observation values (Epoch: 2025-12-19T06:56:03.420Z)
Latitude
-0.00005°
Longitude
110.42887°
Altitude
482.752 km
Speed
7.626 km/s
True Right ascension
20h 10m 18s
True Declination
0° 00' 00"
Sunlit
Object was in daylight at epoch
Visualization orbit readout
Latitude
Unknown
Longitude
Unknown
Altitude
Unknown
Speed
Unknown
Apparent Right ascension
Unknown
Apparent Declination
Unknown
Sunlit
N/A
Visualization observer readout
Local Sidereal Time
05:03:06
Azimuth
Unknown
Elevation
Unknown
Doppler factor
Unknown
Orbital elements
Apogee altitude
485.691 km
Perigee altitude
484.247 km
Semi-major axis
6,863.106 km
Eccentricity
0.00011
Inclination
43.0004°
RAAN
302.5754°
Arg. of periapsis
273.7839°
True anomaly
86.30123°
Mean anomaly
86.2892°
Eccentric anomaly
86.29521°
Mean motion
3.81735 °/min
Orbital period
94.31 mins
BSTAR
0.000026294
Loading maneuver chart data...
Computing Atmospheric mass density...
Loading historical data...
Loading historical data...
Loading historical data...
Loading historical data...
Loading historical data...
Loading historical data...
Loading historical data...

Documentation

Showing up to 5 results
|